Weather History for SKBQ - July, 2013

Change the Weather History Date:

Tuesday, July 9, 2013

  Actual Average Record
Temperature  
Mean Temperature 85 °F -  
Max Temperature 94 °F 91 °F 94 °F (2013)
Min Temperature 76 °F 76 °F 73 °F (1999)
Cooling Degree Days 20    
Growing Degree Days 35 (Base 50)    
Moisture  
Dew Point 77 °F    
Average Humidity 78    
Maximum Humidity 100    
Minimum Humidity 53    
Precipitation  
Precipitation 0.00 in 0.10 in - ()
Sea Level Pressure  
Sea Level Pressure 29.83 in    
Wind  
Wind Speed 6 mph ()    
Max Wind Speed 18 mph    
Max Gust Speed -    
Visibility 5.8 miles    
Events      
Averages and records for this station are not official NWS values.
T = Trace of Precipitation, MM = Missing Value Source: Averaged Metar Reports

Daily Weather History Graph

Daily Weather History Graph

Search for Another Location

Airport or City:

Trip Planner

Search our weather history database for the weather conditions in past years. The results will help you decide how hot, cold, wet, or windy it might be!

Date:

Astronomy

Jul. 09, 2013 Rise Set
Actual Time 5:42 AM COT 6:26 PM COT
Civil Twilight 5:19 AM COT 6:49 PM COT
Nautical Twilight 4:52 AM COT 7:16 PM COT
Astronomical Twilight 4:25 AM COT 7:43 PM COT
Moon 6:43 AM COT (7/9) 7:28 PM COT (7/9)
Length of Visible Light 13h 29m
Length of Day
12h 43m
New Moon, 2% of the Moon is Illuminated
Jul 9
New Moon
Jul 15
First Quarter
Jul 22
Full
Jul 29
Last Quarter
Aug 6
New

Hourly Weather History & Observations

Time (COT) Temp. Heat Index Dew Point Humidity Pressure Visibility Wind Dir Wind Speed Gust Speed Precip Events Conditions
12:00 AM 80.6 °F 87.1 °F 77.0 °F 89% 29.86 in 6.2 mi NE 9.2 mph - N/A   Partly Cloudy
1:00 AM 80 °F - 78 °F 93% 29.85 in 6 mi NE 4.5 mph - -   Haze
1:00 AM 80.6 °F 88.1 °F 78.8 °F 94% 29.84 in - NE 3.5 mph - N/A   Clear
2:00 AM 78.8 °F - 77.0 °F 94% 29.82 in - North 4.6 mph - N/A   Clear
3:00 AM 78.8 °F - 77.0 °F 94% 29.80 in - WNW 3.5 mph - N/A   Clear
4:00 AM 77 °F - 76 °F 95% 29.81 in 6 mi Calm Calm - -   Haze
4:00 AM 77.0 °F - 75.2 °F 94% 29.80 in - Calm Calm - N/A   Clear
5:00 AM 78.8 °F - 78.8 °F 100% 29.81 in - East 8.1 mph - N/A   Clear
6:00 AM 80.6 °F 89.3 °F 80.6 °F 100% 29.82 in 2.5 mi Calm Calm - N/A   Mostly Cloudy
7:00 AM 79 °F - 78 °F 95% 29.86 in 6 mi South 6.7 mph - -   Mist
7:00 AM 78.8 °F - 77.0 °F 94% 29.85 in 1.9 mi South 5.8 mph - N/A   Mostly Cloudy
8:00 AM 86.0 °F 96.9 °F 77.0 °F 74% 29.79 in 6.2 mi East 9.2 mph - N/A   Scattered Clouds
9:00 AM 86.0 °F 96.9 °F 77.0 °F 74% 29.87 in 6.2 mi ESE 5.8 mph - N/A   Scattered Clouds
10:00 AM 86 °F - 76 °F 66% 29.89 in 6 mi SSE 6.7 mph - -   Haze
10:00 AM 86.0 °F 96.9 °F 77.0 °F 74% 29.88 in 6.2 mi SSE 5.8 mph - N/A   Scattered Clouds
11:00 AM 89.6 °F 102.2 °F 77.0 °F 66% 29.89 in 6.2 mi South 4.6 mph - N/A   Scattered Clouds
12:00 PM 91.4 °F 102.5 °F 75.2 °F 59% 29.86 in 6.2 mi ESE 5.8 mph - N/A   Scattered Clouds
1:00 PM 90 °F - 75 °F 53% 29.85 in 6 mi ENE 13.4 mph - -   Haze
1:00 PM 91.4 °F 102.5 °F 75.2 °F 59% 29.84 in 6.2 mi ENE 12.7 mph - N/A   Scattered Clouds
2:00 PM 91.4 °F 102.5 °F 75.2 °F 59% 29.82 in 6.2 mi East 12.7 mph - N/A   Partly Cloudy
3:00 PM 89.6 °F 98.2 °F 73.4 °F 59% 29.80 in 6.2 mi ENE 11.5 mph - N/A   Partly Cloudy
4:00 PM 89 °F - 75 °F 56% 29.79 in 6 mi ENE 17.9 mph - -   Haze
4:00 PM 89.6 °F 99.8 °F 75.2 °F 62% 29.78 in 6.2 mi ENE 17.3 mph - N/A   Partly Cloudy
5:00 PM 87.8 °F 99.7 °F 77.0 °F 70% 29.78 in 6.2 mi NE 11.5 mph - N/A   Scattered Clouds
6:00 PM 86.0 °F 96.9 °F 77.0 °F 74% 29.79 in 6.2 mi East 9.2 mph - N/A   Scattered Clouds
7:00 PM 83 °F - 77 °F 77% 29.83 in 6 mi ENE 11.2 mph - -   Haze
7:00 PM 82.4 °F 90.9 °F 77.0 °F 84% 29.81 in 6.2 mi ENE 11.5 mph - N/A   Scattered Clouds
8:00 PM 82.4 °F 89.5 °F 75.2 °F 79% 29.82 in 6.2 mi NE 11.5 mph - N/A   Scattered Clouds
9:00 PM 82.4 °F 89.5 °F 75.2 °F 79% 29.84 in 6.2 mi ENE 11.5 mph - N/A   Scattered Clouds
10:00 PM 82 °F - 76 °F 78% 29.85 in 6 mi NE 6.7 mph - -   Haze
10:00 PM 82.4 °F 90.9 °F 77.0 °F 84% 29.84 in 6.2 mi NE 5.8 mph - N/A   Partly Cloudy
11:00 PM 82.4 °F 90.9 °F 77.0 °F 84% 29.84 in 6.2 mi ENE 5.8 mph - N/A   Partly Cloudy